Location: Shenandoah County Park
(38.9356°N, 78.4524°W)
Time: 00:20:02
(UTC-05:00)

Transit 4A - Visible Passes

Search period start: 06 February 2023 00:00
Search period end: 16 February 2023 00:00
Orbit: 870 x 973 km, 66.8° (Epoch: 05 February)

Date Brightness Start Highest point End Pass type
(mag) Time Alt. Az. Time Alt. Az. Time Alt. Az.
06 Feb 9.7 18:20:02 10° WSW 18:24:47 25° NW 18:29:35 10° N visible
07 Feb 10.1 18:30:24 10° W 18:34:19 18° NW 18:38:16 10° N visible
08 Feb 10.2 18:41:21 10° WNW 18:43:57 13° NW 18:46:35 10° NNW visible
